Location: Unspecified
(38.0989°N, 0.6729°W)
Time: 12:43:35
(UTC+02:00)

Amateur Radio Satellites - All Passes

Search period start: 22 July 2017 12:13
Search period end: 23 July 2017 12:13
Location: Unspecified, 38.0989°N, 0.6729°W

Satellite Date Start Highest point End Downlink Frequencies (MHz)
Time Altitude Azimuth
POLYITAN 1 22 Jul 12:14:29 12:17:40 21° 68° (ENE) 12:20:51 437.675
DUCHIFAT 1 22 Jul 12:17:41 12:20:33 18° 67° (ENE) 12:23:24 145.980
QB50P2 22 Jul 12:26:37 12:30:23 30° 71° (ENE) 12:34:09 145.880/145.840
ESTCUBE 1 22 Jul 12:30:14 12:32:57 16° 93° (E) 12:35:40 437.505/2401.250
FO-29 22 Jul 12:32:42 12:37:50 20° 272° (W) 12:43:11 435.910
NO-84 22 Jul 12:38:39 12:41:03 22° 126° (SE) 12:43:37 435.350 FM
EO-79 22 Jul 12:39:41 12:43:40 39° 72° (ENE) 12:47:38 145.935-145.965
NANOSAT C BR1 22 Jul 12:42:05 12:46:00 37° 72° (ENE) 12:49:56 145.865
BUGSAT 1 22 Jul 13:00:45 13:03:17 16° 66° (ENE) 13:05:48 437.445
SPROUT 22 Jul 13:14:14 13:14:41 10° 90° (E) 13:15:09 437.525
VELOX 1 22 Jul 13:31:10 13:33:46 15° 93° (E) 13:36:20 145.980
Oscar 19 22 Jul 13:37:11 13:40:43 19° 64° (ENE) 13:44:14 437.125/150
AIST 2D 22 Jul 13:37:25 13:39:18 14° 267° (W) 13:41:11 435.315
Gurwin Techsat 1B 22 Jul 13:37:29 13:39:37 12° 60° (ENE) 13:41:46 435.225
LO-87 22 Jul 13:40:42 13:44:02 36° 287° (WNW) 13:47:20 145.935 - 145.965
AO-85 22 Jul 13:43:03 13:45:24 15° 111° (ESE) 13:47:42 145.980
POLYITAN 1 22 Jul 13:49:26 13:53:14 31° 263° (W) 13:57:02 437.675
DUCHIFAT 1 22 Jul 13:51:59 13:55:55 36° 262° (W) 13:59:51 145.980
QB50P2 22 Jul 14:02:59 14:06:10 20° 266° (W) 14:09:22 145.880/145.840
ESTCUBE 1 22 Jul 14:05:38 14:09:56 44° 287° (WNW) 14:14:13 437.505/2401.250
NO-84 22 Jul 14:15:40 14:18:23 26° 325° (NW) 14:21:18 435.350 FM
EO-79 22 Jul 14:16:55 14:19:33 16° 267° (W) 14:22:11 145.935-145.965
NANOSAT C BR1 22 Jul 14:19:05 14:21:49 17° 267° (W) 14:24:32 145.865
BUGSAT 1 22 Jul 14:34:14 14:38:15 42° 261° (W) 14:42:18 437.445
UKube-1 22 Jul 14:37:26 14:40:02 15° 93° (E) 14:42:37 .
SPROUT 22 Jul 14:46:44 14:50:56 59° 286° (WNW) 14:55:07 437.525
BEESAT 3 22 Jul 14:54:39 14:58:37 84° 300° (WNW) 15:02:40 437.485
VELOX 1 22 Jul 15:06:08 15:10:24 45° 288° (WNW) 15:14:38 145.980
Gurwin Techsat 1B 22 Jul 15:13:30 15:18:49 82° 258° (WSW) 15:24:10 435.225
50 SAT 22 Jul 15:14:07 15:17:33 69° 284° (WNW) 15:20:58 437.505
Oscar 19 22 Jul 15:14:42 15:19:37 49° 260° (W) 15:24:35 437.125/150
AO-85 22 Jul 15:21:40 15:25:27 39° 305° (NW) 15:29:09 145.980
ITAMSAT 1 22 Jul 15:22:13 15:24:58 15° 62° (ENE) 15:27:43 435.822/435.867
DX 1 22 Jul 15:22:19 15:26:43 81° 104° (ESE) 15:31:05 434.975-435.025
BEESAT 2 22 Jul 15:26:42 15:30:38 70° 118° (ESE) 15:34:40 435.950
RS-15 22 Jul 15:34:05 15:40:21 16° 96° (E) 15:46:39 29.354- 29.394
PCSat 22 Jul 15:53:12 15:58:17 39° 56° (NE) 16:03:19 145.827
AO-7 22 Jul 15:55:12 16:03:06 49° 64° (ENE) 16:11:01 .
UKube-1 22 Jul 16:12:08 16:16:13 41° 288° (WNW) 16:20:17 .
MOZHAYETS 4 22 Jul 16:23:02 16:25:52 16° 93° (E) 16:28:41
BEESAT 22 Jul 16:29:28 16:33:28 26° 96° (E) 16:37:28 436.000
ITUPSAT 1 22 Jul 16:40:13 16:44:31 33° 98° (E) 16:48:48 437.325
SO-50 22 Jul 16:41:03 16:44:55 27° 50° (NE) 16:48:48 436.795
O/OREOS (USA 219) 22 Jul 16:47:38 16:51:49 40° 106° (ESE) 16:56:01 437.305
ITAMSAT 1 22 Jul 16:58:36 17:03:48 70° 257° (WSW) 17:09:02 435.822/435.867
BEESAT 2 22 Jul 17:07:09 17:08:51 12° 316° (NW) 17:10:34 435.950
DOVE 4 22 Jul 17:20:29 17:21:25 11° 60° (ENE) 17:22:23 437.250
PCSat 22 Jul 17:36:58 17:41:28 27° 252° (WSW) 17:45:56 145.827
RS-15 22 Jul 17:38:33 17:50:37 75° 115° (ESE) 18:02:56 29.354- 29.394
AO-7 22 Jul 17:48:29 17:55:57 36° 262° (W) 18:03:29 .
MOZHAYETS 4 22 Jul 17:58:53 18:03:12 43° 288° (WNW) 18:07:30
BEESAT 22 Jul 18:07:06 18:11:10 29° 291° (WNW) 18:15:14 436.000
ITUPSAT 1 22 Jul 18:18:24 18:22:08 23° 293° (WNW) 18:25:52 437.325
SO-50 22 Jul 18:21:19 18:25:22 32° 246° (WSW) 18:29:27 436.795
CUBESAT XI-V 22 Jul 18:24:29 18:29:07 65° 101° (E) 18:33:46 437.345
CUTE-I 22 Jul 18:24:33 18:28:20 20° 64° (ENE) 18:32:07 437.470
O/OREOS (USA 219) 22 Jul 18:28:15 18:31:23 18° 302° (WNW) 18:34:31 437.305
XW-2F 22 Jul 18:30:30 18:32:45 16° 68° (ENE) 18:35:01 145.980 - 146.000
HO-68 22 Jul 18:35:12 18:37:54 12° 53° (NE) 18:40:34 435.675
YUBILEINY 22 Jul 18:51:13 18:55:54 16° 77° (ENE) 19:00:36 435.215
DOVE 4 22 Jul 18:53:28 18:58:12 86° 254° (WSW) 19:03:17 437.250
XW-2D 22 Jul 18:55:32 18:58:58 34° 73° (ENE) 19:02:23 145.860 - 145.880
KKS-1 22 Jul 19:02:58 19:07:28 89° 281° (W) 19:11:55 437.445
XW-2B 22 Jul 19:05:19 19:08:54 44° 74° (ENE) 19:12:29 145.730 - 145.750
NO-84 22 Jul 19:12:46 19:15:10 16° 29° (NNE) 19:17:41 435.350 FM
XW-2C 22 Jul 19:22:17 19:26:02 78° 77° (ENE) 19:29:48 145.795 - 145.815
STARS 22 Jul 19:41:46 19:46:12 81° 283° (WNW) 19:50:35 437.465
LilacSat-2 22 Jul 19:42:03 19:45:45 52° 260° (W) 19:49:26 437.200
NUDT-PHONESAT 22 Jul 19:42:53 19:46:34 76° 257° (WSW) 19:50:16 437.300
KAITUO 1B 22 Jul 19:52:39 19:56:16 53° 260° (W) 19:59:54 145.475/437.950
RS-15 22 Jul 19:53:11 20:04:16 37° 320° (NW) 20:15:27 29.354- 29.394
CUTE-I 22 Jul 20:02:45 20:07:57 51° 260° (W) 20:13:12 437.470
XW-2F 22 Jul 20:03:16 20:06:36 31° 263° (W) 20:09:57 145.980 - 146.000
CUBESAT XI-V 22 Jul 20:03:58 20:05:55 13° 296° (WNW) 20:07:52 437.345
CUTE 1.7 + AOD 2 22 Jul 20:08:09 20:12:04 39° 73° (ENE) 20:15:59 437.475
XW-2A 22 Jul 20:17:11 20:20:04 26° 72° (ENE) 20:22:57 145.665 - 145.685
HO-68 22 Jul 20:17:12 20:24:19 69° 71° (ENE) 20:31:27 435.675
UWE-3 22 Jul 20:20:41 20:23:47 18° 67° (ENE) 20:26:51 435.000/436.395/437.385
SEEDS 22 Jul 20:26:29 20:30:21 39° 73° (ENE) 20:34:14 437.485
XW-2D 22 Jul 20:31:20 20:33:15 13° 267° (W) 20:35:10 145.860 - 145.880
ZACube-1 22 Jul 20:41:53 20:44:40 16° 67° (ENE) 20:47:25 437.345
YUBILEINY 22 Jul 20:42:30 20:51:20 88° 94° (E) 21:00:13 435.215
XW-2B 22 Jul 20:42:33 20:43:17 10° 269° (W) 20:44:02 145.730 - 145.750
NO-84 22 Jul 20:49:09 20:53:10 83° 45° (NE) 20:57:26 435.350 FM
CUBEBUG 2 22 Jul 20:50:33 20:55:14 65° 75° (ENE) 20:59:52 437.445
Oscar 11 22 Jul 21:12:57 21:16:20 23° 69° (ENE) 21:19:44 .
AAUSAT CUBESAT 2 22 Jul 21:19:10 21:23:15 75° 76° (ENE) 21:27:21 437.432
AO-73 22 Jul 21:22:23 21:26:33 40° 73° (ENE) 21:30:39 145.935
STRAND 1 22 Jul 21:35:29 21:40:37 87° 101° (E) 21:45:43 437.568
CUTE 1.7 + AOD 2 22 Jul 21:45:37 21:48:03 15° 268° (W) 21:50:29 437.475
nSIGHT-1 22 Jul 21:47:20 21:48:08 11° 127° (SE) 21:48:55 .
XW-2A 22 Jul 21:50:56 21:52:48 14° 266° (W) 21:54:40 145.665 - 145.685
UWE-3 22 Jul 21:55:33 21:59:55 41° 262° (W) 22:04:13 435.000/436.395/437.385
FO-29 22 Jul 22:01:13 22:03:16 11° 84° (E) 22:05:15 435.910
SEEDS 22 Jul 22:03:50 22:06:11 15° 268° (W) 22:08:32 437.485
Tancredo 1 22 Jul 22:05:24 22:08:14 50° 137° (SE) 22:11:06 437.200
HO-68 22 Jul 22:07:32 22:12:33 20° 267° (W) 22:17:36 435.675
RS-15 22 Jul 22:14:11 22:22:00 18° 353° (N) 22:29:44 29.354- 29.394
AO-85 22 Jul 22:15:12 22:16:35 11° 44° (NE) 22:18:01 145.980
ZACube-1 22 Jul 22:16:18 22:20:35 43° 261° (W) 22:24:48 437.345
EO-88 22 Jul 22:27:55 22:30:44 21° 70° (ENE) 22:33:34 145.990 - 145.960
NO-84 22 Jul 22:28:45 22:30:15 12° 238° (WSW) 22:31:46 435.350 FM
CUBEBUG 2 22 Jul 22:30:35 22:32:11 12° 270° (W) 22:33:47 437.445
ISS 22 Jul 22:36:12 22:39:13 36° 134° (SE) 22:42:14 437.550
YUBILEINY 22 Jul 22:43:38 22:49:18 18° 296° (WNW) 22:55:00 435.215
Oscar 11 22 Jul 22:48:38 22:52:19 27° 264° (W) 22:56:01 .
DELFI C3 22 Jul 22:49:15 22:53:08 71° 76° (ENE) 22:57:04 145.870
AO-73 22 Jul 23:00:02 23:02:54 17° 267° (W) 23:05:44 145.935
UNISAT 6 22 Jul 23:01:58 23:04:39 16° 93° (E) 23:07:18 437.425
BEESAT 3 22 Jul 23:13:07 23:16:43 31° 53° (NE) 23:20:15 437.485
STRAND 1 22 Jul 23:17:42 23:19:01 11° 300° (WNW) 23:20:20 437.568
nSIGHT-1 22 Jul 23:20:54 23:24:07 66° 323° (NW) 23:27:19 .
ESTCUBE 1 22 Jul 23:29:17 23:31:08 12° 64° (ENE) 23:33:00 437.505/2401.250
M-CUBED/EXP-1 PRIME 22 Jul 23:34:29 23:37:08 15° 97° (E) 23:39:48 437.505
Tancredo 1 22 Jul 23:41:46 23:43:51 17° 334° (NNW) 23:45:55 437.200
FO-29 22 Jul 23:42:17 23:49:34 82° 103° (ESE) 23:55:56 435.910
TIGRISAT 22 Jul 23:45:54 23:50:06 47° 99° (E) 23:54:12 435.000
BEESAT 2 22 Jul 23:46:10 23:49:34 25° 51° (NE) 23:52:55 435.950
PRISM 22 Jul 23:52:38 23:56:43 51° 100° (E) 00:00:47 437.425
AO-85 22 Jul 23:53:12 23:57:28 86° 237° (WSW) 00:02:02 145.980
EO-88 23 Jul 00:01:33 00:04:18 20° 265° (W) 00:07:04 145.990 - 145.960
ISS 23 Jul 00:13:01 00:15:45 24° 331° (NNW) 00:18:28 437.550
LO-87 23 Jul 00:14:21 00:17:55 61° 76° (ENE) 00:21:31 145.935 - 145.965
VELOX 1 23 Jul 00:28:05 00:29:37 12° 63° (ENE) 00:31:10 145.980
RS-15 23 Jul 00:30:56 00:40:45 27° 29° (NNE) 00:50:10 29.354- 29.394
UNISAT 6 23 Jul 00:37:29 00:41:31 38° 288° (WNW) 00:45:28 437.425
BEESAT 3 23 Jul 00:51:08 00:54:04 20° 249° (WSW) 00:56:57 437.485
nSIGHT-1 23 Jul 00:59:24 01:01:01 13° 340° (NNW) 01:02:39 .
AIST 2D 23 Jul 01:02:08 01:05:29 43° 99° (E) 01:08:49 435.315
ESTCUBE 1 23 Jul 01:02:59 01:07:23 60° 259° (W) 01:11:49 437.505/2401.250
M-CUBED/EXP-1 PRIME 23 Jul 01:07:16 01:11:44 54° 291° (WNW) 01:16:16 437.505
BEESAT 2 23 Jul 01:23:49 01:27:15 27° 247° (WSW) 01:30:39 435.950
TIGRISAT 23 Jul 01:24:04 01:26:20 14° 295° (WNW) 01:28:35 435.000
FO-29 23 Jul 01:28:57 01:33:31 18° 303° (WNW) 01:37:48 435.910
PRISM 23 Jul 01:29:42 01:31:31 13° 296° (WNW) 01:33:21 437.425
UKube-1 23 Jul 01:31:42 01:33:06 11° 63° (ENE) 01:34:30 .
POLYITAN 1 23 Jul 01:35:19 01:39:21 45° 99° (E) 01:43:22 437.675
DUCHIFAT 1 23 Jul 01:37:18 01:41:11 37° 98° (E) 01:45:03 145.980
SPROUT 23 Jul 01:37:44 01:42:01 81° 78° (ENE) 01:46:21 437.525
50 SAT 23 Jul 01:44:00 01:46:54 27° 72° (ENE) 01:49:51 437.505
QB50P2 23 Jul 01:48:03 01:52:16 72° 101° (E) 01:56:27 145.880/145.840
VELOX 1 23 Jul 02:01:07 02:05:29 64° 259° (W) 02:09:54 145.980
EO-79 23 Jul 02:01:08 02:05:23 87° 278° (W) 02:09:34 145.935-145.965
NANOSAT C BR1 23 Jul 02:03:04 02:07:17 88° 113° (ESE) 02:11:27 145.865
DX 1 23 Jul 02:15:50 02:20:05 55° 74° (ENE) 02:24:21 434.975-435.025
BUGSAT 1 23 Jul 02:17:44 02:21:19 29° 97° (E) 02:24:50 437.445
RS-15 23 Jul 02:43:33 02:55:43 76° 57° (ENE) 03:07:10 29.354- 29.394
JUGNU 23 Jul 02:44:01 02:46:18 12° 176° (S) 02:48:36 437.505
O/OREOS (USA 219) 23 Jul 02:58:54 03:03:20 59° 67° (ENE) 03:07:46 437.305
UKube-1 23 Jul 03:04:18 03:08:33 62° 258° (WSW) 03:12:51 .
POLYITAN 1 23 Jul 03:12:29 03:14:44 14° 295° (WNW) 03:16:58 437.675
DUCHIFAT 1 23 Jul 03:13:51 03:16:32 17° 293° (WNW) 03:19:12 145.980
50 SAT 23 Jul 03:17:57 03:19:41 13° 267° (W) 03:21:25 437.505
MOZHAYETS 4 23 Jul 03:24:05 03:26:24 14° 64° (ENE) 03:28:43
Oscar 19 23 Jul 03:27:33 03:32:42 67° 102° (ESE) 03:37:50 437.125/150
Gurwin Techsat 1B 23 Jul 03:31:31 03:36:38 45° 99° (E) 03:41:41 435.225
BEESAT 23 Jul 03:34:17 03:38:14 27° 68° (ENE) 03:42:12 436.000
ITUPSAT 1 23 Jul 03:45:15 03:49:31 33° 70° (ENE) 03:53:48 437.325
BUGSAT 1 23 Jul 03:53:27 03:56:28 20° 292° (WNW) 03:59:27 437.445
DX 1 23 Jul 03:54:58 03:56:34 12° 268° (W) 03:58:10 434.975-435.025
AO-7 23 Jul 04:00:58 04:05:21 15° 90° (E) 04:09:43 .
nSIGHT-1 23 Jul 04:14:27 04:16:14 14° 21° (NNE) 04:18:01 .
Tancredo 1 23 Jul 04:30:27 04:33:08 30° 33° (NNE) 04:35:48 437.200
JUGNU 23 Jul 04:32:28 04:34:26 12° 186° (S) 04:36:23 437.505
O/OREOS (USA 219) 23 Jul 04:40:48 04:42:09 11° 262° (W) 04:43:31 437.305
RS-15 23 Jul 04:57:33 05:06:53 28° 258° (WSW) 05:15:54 29.354- 29.394
MOZHAYETS 4 23 Jul 04:58:33 05:03:03 56° 260° (W) 05:07:34
ISS 23 Jul 05:05:24 05:08:17 28° 31° (NNE) 05:11:10 437.550
Oscar 19 23 Jul 05:08:39 05:11:25 15° 298° (WNW) 05:14:11 437.125/150
BEESAT 23 Jul 05:11:42 05:15:52 30° 263° (W) 05:20:03 436.000
Gurwin Techsat 1B 23 Jul 05:12:15 05:16:14 22° 295° (WNW) 05:20:11 435.225
ITAMSAT 1 23 Jul 05:13:12 05:18:14 47° 100° (E) 05:23:12 435.822/435.867
ITUPSAT 1 23 Jul 05:23:32 05:27:21 23° 265° (W) 05:31:11 437.325
CUBESAT XI-V 23 Jul 05:25:55 05:30:21 51° 73° (ENE) 05:34:48 437.345
SRMSAT 23 Jul 05:28:15 05:30:24 12° 176° (S) 05:32:32 437.500
nSIGHT-1 23 Jul 05:49:52 05:53:06 76° 40° (NE) 05:56:19 .
AO-7 23 Jul 05:50:43 05:59:08 85° 106° (ESE) 06:07:29 .
KKS-1 23 Jul 05:58:55 06:03:21 68° 74° (ENE) 06:07:48 437.445
Tancredo 1 23 Jul 06:06:07 06:08:25 21° 228° (SW) 06:10:43 437.200
PCSat 23 Jul 06:32:54 06:38:05 49° 112° (ESE) 06:43:19 145.827
STARS 23 Jul 06:36:11 06:40:35 72° 75° (ENE) 06:45:02 437.465
ISS 23 Jul 06:41:51 06:44:44 29° 227° (SW) 06:47:37 437.550
ITAMSAT 1 23 Jul 06:53:35 06:57:18 20° 296° (WNW) 07:01:01 435.822/435.867
DOVE 4 23 Jul 06:54:15 06:58:59 33° 95° (E) 07:03:32 437.250
YUBILEINY 23 Jul 06:55:14 07:03:22 40° 74° (ENE) 07:11:24 435.215
SO-50 23 Jul 06:56:40 06:57:54 11° 107° (ESE) 06:59:09 436.795
CUBESAT XI-V 23 Jul 07:05:39 07:07:59 14° 268° (W) 07:10:21 437.345
STRAND 1 23 Jul 07:14:08 07:16:12 12° 61° (ENE) 07:18:15 437.568
SRMSAT 23 Jul 07:16:46 07:18:40 12° 186° (S) 07:20:34 437.500
NUDT-PHONESAT 23 Jul 07:17:07 07:17:57 11° 92° (E) 07:18:49 437.300
LilacSat-2 23 Jul 07:17:35 07:20:07 17° 94° (E) 07:22:40 437.200
KAITUO 1B 23 Jul 07:26:20 07:28:34 15° 93° (E) 07:30:48 145.475/437.950
XW-2F 23 Jul 07:36:44 07:39:56 26° 97° (E) 07:43:06 145.980 - 146.000
AO-7 23 Jul 07:45:03 07:50:52 22° 306° (NW) 07:56:42 .
HO-68 23 Jul 07:49:52 07:52:44 13° 89° (E) 07:55:36 435.675
XW-2D 23 Jul 08:03:09 08:06:53 66° 100° (E) 08:10:37 145.860 - 145.880
XW-2B 23 Jul 08:13:06 08:16:52 87° 102° (ESE) 08:20:38 145.730 - 145.750
PCSat 23 Jul 08:17:24 08:21:44 24° 310° (NW) 08:26:04 145.827
CUTE-I 23 Jul 08:21:14 08:26:37 74° 103° (ESE) 08:31:56 437.470
XW-2C 23 Jul 08:30:24 08:34:04 53° 285° (WNW) 08:37:44 145.795 - 145.815
DOVE 4 23 Jul 08:32:00 08:36:29 29° 292° (WNW) 08:40:51 437.250
SO-50 23 Jul 08:33:14 08:37:45 70° 302° (WNW) 08:42:16 436.795
CUBEBUG 2 23 Jul 08:44:51 08:47:05 14° 91° (E) 08:49:18 437.445
NUDT-PHONESAT 23 Jul 08:48:34 08:52:02 41° 286° (WNW) 08:55:30 437.300
STRAND 1 23 Jul 08:49:30 08:54:39 79° 257° (WSW) 08:59:51 437.568
LilacSat-2 23 Jul 08:51:09 08:54:24 27° 288° (WNW) 08:57:38 437.200
YUBILEINY 23 Jul 08:52:05 09:00:05 41° 273° (W) 09:08:01 435.215
KAITUO 1B 23 Jul 08:59:21 09:02:37 30° 288° (WNW) 09:05:52 145.475/437.950
AAUSAT CUBESAT 2 23 Jul 09:04:25 09:06:25 13° 92° (E) 09:08:25 437.432
XW-2F 23 Jul 09:11:16 09:13:51 18° 291° (WNW) 09:16:26 145.980 - 146.000
XW-2A 23 Jul 09:12:38 09:15:42 33° 98° (E) 09:18:44 145.665 - 145.685
CUTE 1.7 + AOD 2 23 Jul 09:29:46 09:34:01 80° 285° (WNW) 09:38:16 437.475
HO-68 23 Jul 09:34:09 09:41:22 85° 107° (ESE) 09:48:31 435.675
UWE-3 23 Jul 09:46:45 09:50:45 42° 98° (E) 09:54:40 435.000/436.395/437.385
SEEDS 23 Jul 09:46:51 09:51:04 81° 284° (WNW) 09:55:18 437.485
FO-29 23 Jul 09:50:58 09:57:37 35° 65° (ENE) 10:04:31 435.910
UNISAT 6 23 Jul 09:59:40 10:02:01 14° 65° (ENE) 10:04:21 437.425
CUTE-I 23 Jul 10:03:17 10:05:59 14° 299° (WNW) 10:08:40 437.470
ZACube-1 23 Jul 10:06:11 10:10:04 37° 98° (E) 10:13:53 437.345
CUBEBUG 2 23 Jul 10:19:54 10:23:56 42° 287° (WNW) 10:27:52 437.445
M-CUBED/EXP-1 PRIME 23 Jul 10:20:27 10:21:25 11° 58° (ENE) 10:22:24 437.505
Oscar 11 23 Jul 10:36:33 10:40:49 58° 100° (E) 10:45:04 .
AAUSAT CUBESAT 2 23 Jul 10:38:05 10:42:04 44° 286° (WNW) 10:46:02 437.432
PRISM 23 Jul 10:40:22 10:43:51 28° 70° (ENE) 10:47:24 437.425
TIGRISAT 23 Jul 10:42:27 10:46:42 35° 71° (ENE) 10:50:53 435.000
XW-2A 23 Jul 10:47:07 10:48:05 11° 293° (WNW) 10:49:03 145.665 - 145.685
AO-73 23 Jul 10:47:43 10:51:52 75° 283° (WNW) 10:55:58 145.935
HO-68 23 Jul 11:23:41 11:28:10 18° 303° (WNW) 11:32:40 435.675
UWE-3 23 Jul 11:24:29 11:26:49 15° 294° (WNW) 11:29:07 435.000/436.395/437.385
EO-88 23 Jul 11:30:55 11:34:16 33° 98° (E) 11:37:35 145.990 - 145.960
UNISAT 6 23 Jul 11:33:38 11:38:14 58° 260° (W) 11:42:47 437.425
FO-29 23 Jul 11:35:06 11:42:15 49° 262° (W) 11:49:51 435.910
AIST 2D 23 Jul 11:36:23 11:37:59 13° 68° (ENE) 11:39:34 435.315
ZACube-1 23 Jul 11:43:28 11:46:01 16° 293° (WNW) 11:48:33 437.345
M-CUBED/EXP-1 PRIME 23 Jul 11:51:52 11:55:17 50° 256° (WSW) 11:58:59 437.505
DELFI C3 23 Jul 12:02:18 12:06:13 53° 285° (WNW) 12:10:07 145.870
NO-84 23 Jul 12:06:13 12:08:10 16° 124° (SE) 12:10:12 435.350 FM
